[[{"header":{"parameterUnit":"m.s-1","parameterCategory":1,"la1":30.2991,"la2":30.254,"lo1":-89.0895,"lo2":-89.0444,"dy":0.0017,"dx":0.0017,"nx":28,"ny":28,"refTime":"2023-10-08T03:00:00:Z","depth":0,"parameterNumber":2,"parameterNumberName":"U-component_of_WINDS"},"data":[0,0,0,0,0,0,0,0,0,0,0,0,0,0,0,0,0,0,0,0,0,0,0,0,0,0,0,0,0,0,0,0,0,0,0,0,0,0,0,0,0,0,0,0,0,0,0,0,0,0,0,0,0,0,0,0,0,0,-1.928,-1.9281,0,-1.9382,-1.9383,-1.9384,-1.9296,-1.9293,-1.9289,-1.9286,-1.9393,-1.9399,-1.9405,0,0,0,0,0,0,0,0,0,0,0,0,0,-1.901,-1.9016,-1.928,-1.9281,-1.9282,-1.9382,-1.9383,-1.9385,-1.9297,-1.9292,-1.9288,-1.9284,-1.9391,-1.9398,-1.9406,0,0,0,0,0,0,0,0,0,0,0,0,0,-1.9121,-1.9017,-1.928,-1.9251,-1.9249,-1.9381,-1.9383,-1.9385,-1.9298,-1.9292,-1.9287,-1.9282,-1.9388,-1.9397,-1.9407,-1.9574,0,0,-1.9435,-1.9439,0,0,0,0,0,0,0,0,-1.9115,-1.9131,-1.9254,-1.9253,-1.9251,-1.9321,-1.9327,-1.9448,-1.9299,-1.9279,-1.9285,-1.9279,-1.9373,-1.9384,-1.9415,-1.9579,-1.9584,-1.9436,-1.9442,-1.9446,-1.9448,0,0,0,0,0,0,0,-1.9108,-1.9127,-1.932,-1.9255,-1.9254,-1.9233,-1.9243,-1.935,-1.9356,-1.9281,-1.9275,-1.9288,-1.9372,-1.9406,-1.9417,-1.9585,-1.9436,-1.9444,-1.945,-1.9454,-1.9892,-1.9897,0,0,0,0,0,0,-1.9103,-1.9121,-1.9317,-1.9323,-1.9168,-1.9242,-1.9253,-1.9304,-1.9354,-1.9357,-1.9292,-1.9283,-1.9393,-1.9406,-1.942,-1.9621,-1.9446,-1.9455,-1.946,-1.9886,-1.9893,-1.99,0,0,0,0,0,0,-1.9097,-1.9121,-1.9313,-1.922,-1.9243,-1.9253,-1.9311,-1.9309,-1.9343,-1.9363,-1.9364,-1.9326,-1.9389,-1.9407,-1.9536,-1.9623,-1.9459,-1.9467,-1.9879,-1.9888,-1.9896,-2.0022,0,0,0,0,0,0,-1.909,-1.912,-1.9183,-1.9222,-1.9248,-1.9428,-1.9316,-1.9315,-1.9359,-1.9348,-1.9395,-1.9398,-1.9386,-1.9523,-1.9546,-1.9633,-1.9475,-1.9871,-1.9883,-1.9893,-2.0011,-2.0034,-2.0055,0,0,0,0,0,-1.908,-1.9215,-1.9187,-1.9211,-1.9328,-1.9433,-1.9448,-1.9431,-1.9367,-1.9431,-1.9443,-1.9396,-1.9609,-1.9537,-1.9562,-1.9653,-1.9866,-1.988,-1.9893,-2.0001,-2.003,-2.0054,0,0,0,0,0,0,-1.9187,-1.922,-1.9189,-1.934,-1.9384,-1.9418,-1.9498,-1.9462,-1.9526,-1.9513,-1.949,-1.9501,-1.9638,-1.9657,-1.9577,-1.9818,-1.9727,-1.9746,-1.9801,-1.9828,-1.985,-1.9844,-1.9482,0,0,0,0,0,-1.9228,-1.9309,-1.9333,-1.9465,-1.9488,-1.949,-1.9534,-1.9517,-1.9562,-1.9581,-1.9603,-1.9649,-1.9726,-1.9778,-1.985,-2.0011,-2.0021,-2.0086,-2.0109,-2.0127,-2.0145,-2.0233,-2.0263,-1.9944,-1.9944,-1.9944,0,0,-1.9314,-1.9341,-1.9395,-1.9487,-1.9519,-1.9605,-1.9506,-1.9601,-1.9665,-1.9595,-1.972,-1.9737,-1.9787,-1.9933,-1.9999,-1.9954,-2.0234,-2.0144,-2.0158,-2.0167,-2.025,-2.028,-2.0307,-1.9953,-1.9952,-1.995,0,0,-1.9515,-1.9543,-1.9656,-1.969,-1.9739,-1.9739,-1.9766,-1.9804,-1.9813,-1.9937,-1.9887,-1.9962,-2.0095,-2.0133,-2.0169,-2.0382,-2.0342,-2.0406,-2.0524,-2.061,-2.0635,-2.0657,-2.0736,-2.0764,-2.0423,-2.0424,-2.0424,0,-1.9616,-1.9743,-1.9719,-1.9818,-1.986,-1.9799,-1.9914,-1.9947,-2.0019,-2.0049,-1.9997,-2.0163,-2.0192,-2.0347,-2.0399,-2.043,-2.0461,-2.0403,-2.0633,-2.0655,-2.0676,-2.075,-2.0779,-2.0431,-2.043,-2.043,-2.0429,0,-1.9865,-1.9954,-2.0039,-2.0108,-2.0159,-2.0266,-2.0258,-2.0313,-2.0291,-2.0296,-2.0422,-2.0454,-2.0532,-2.0567,-2.0546,-2.0719,-2.069,-2.0636,-2.0545,-2.0714,-2.0784,-2.0812,-2.0442,-2.0439,-2.0437,-2.0435,0,0,-2.014,-2.0193,-2.0225,-2.0256,-2.0304,-2.0373,-2.0476,-2.0551,-2.0599,-2.0649,-2.0736,-2.0849,-2.0799,-2.084,-2.0823,-2.0898,-2.1067,-2.0835,-2.0835,-2.0879,-2.1261,-2.1304,-2.1338,-2.1038,-2.1044,-2.1048,-2.1258,0,-2.0345,-2.0524,-2.0505,-2.0676,-2.0758,-2.07,-2.079,-2.083,-2.0837,-2.0908,-2.0915,-2.0996,-2.0923,-2.0948,-2.1019,-2.1031,-2.1144,-2.1015,-2.1121,-2.1125,-2.1114,-2.1374,-2.1419,-2.1616,-2.1285,-2.1289,-2.1293,0,-2.0609,-2.0668,-2.0847,-2.0883,-2.0917,-2.0998,-2.1065,-2.1133,-2.1177,-2.1176,-2.1222,-2.1191,-2.1295,-2.1199,-2.1342,-2.1255,-2.1297,-2.1309,-2.1316,-2.1328,-2.1222,-2.1396,-2.1679,-2.171,-2.1335,-2.1331,-2.1328,0,-2.0794,-2.0918,-2.1041,-2.1069,-2.1113,-2.1172,-2.1193,-2.1231,-2.1278,-2.1336,-2.1366,-2.1435,-2.1475,-2.1529,-2.1518,-2.1449,-2.1666,-2.1568,-2.167,-2.1671,-2.1722,-2.1719,-2.2019,-2.1743,-2.1742,-2.1742,-2.1741,0,-2.1027,-2.114,-2.1125,-2.1202,-2.1326,-2.1302,-2.1426,-2.144,-2.1474,-2.1552,-2.1505,-2.158,-2.1559,-2.1633,-2.1624,-2.1745,-2.1762,-2.1766,-2.1763,-2.1773,-2.1773,-2.1802,-2.179,-2.175,-2.1748,-2.1746,-2.1745,0,-2.1258,-2.1252,-2.1383,-2.1414,-2.1424,-2.1515,-2.1541,-2.1613,-2.1614,-2.1714,-2.1736,-2.174,-2.1824,-2.1817,-2.1912,-2.1906,-2.2057,-2.2036,-2.2043,-2.2039,-2.2143,-2.2134,-2.2474,-2.2518,-2.2211,-2.2214,-2.2217,0,-2.1409,-2.1494,-2.1533,-2.1582,-2.1607,-2.1686,-2.1732,-2.1711,-2.1761,-2.1817,-2.1883,-2.1962,-2.2025,-2.2163,-2.2174,-2.2247,-2.2229,-2.2343,-2.224,-2.2247,-2.2234,-2.2231,-2.224,-2.2365,-2.2368,-2.2371,-2.2373,0,-2.1678,-2.167,-2.1739,-2.1807,-2.1864,-2.1916,-2.1964,-2.2006,-2.1989,-2.2048,-2.2134,-2.2182,-2.2278,-2.2359,-2.2427,-2.2449,-2.241,-2.2405,-2.2433,-2.2445,-2.2447,-2.245,-2.2102,-2.2398,-2.2396,-2.2394,-2.2393,-2.2392,-2.1875,-2.1948,-2.1987,-2.2065,-2.2098,-2.2144,-2.2213,-2.2223,-2.2293,-2.237,-2.2352,-2.2449,-2.2489,-2.2577,-2.2605,-2.2681,-2.264,-2.268,-2.269,-2.2702,-2.2715,-2.2431,-2.2693,-2.2692,-2.2691,-2.2691,-2.269,0,-2.2144,-2.2166,-2.2238,-2.2305,-2.2367,-2.2321,-2.2371,-2.2426,-2.2511,-2.2552,-2.2614,-2.2712,-2.2789,-2.2806,-2.288,-2.2937,-2.2921,-2.2957,-2.2955,-2.2961,-2.2746,-2.2716,-2.2969,-2.2969,-2.2969,-2.2969,-2.2969,-2.2969,-2.2292,-2.2414,-2.2411,-2.2549,-2.2569,-2.2663,-2.2696,-2.2738,-2.277,-2.2881,-2.2945,-2.2954,-2.2986,-2.3061,-2.313,-2.3132,-2.3163,-2.3208,-2.3204,-2.3004,-2.2976,-2.295,-2.2921,-2.3214,-2.3214,-2.3413,-2.3415,-2.3417]},{"header":{"parameterUnit":"m.s-1","parameterCategory":1,"la1":30.2991,"la2":30.254,"lo1":-89.0895,"lo2":-89.0444,"dy":0.0017,"dx":0.0017,"nx":28,"ny":28,"refTime":"2023-10-08T03:00:00:Z","depth":0,"parameterNumber":3,"parameterNumberName":"V-component_of_WINDS"},"data":[0,0,0,0,0,0,0,0,0,0,0,0,0,0,0,0,0,0,0,0,0,0,0,0,0,0,0,0,0,0,0,0,0,0,0,0,0,0,0,0,0,0,0,0,0,0,0,0,0,0,0,0,0,0,0,0,0,0,-5.6762,-5.6763,0,-5.6862,-5.6863,-5.6864,-5.6786,-5.6782,-5.6779,-5.6776,-5.6872,-5.6877,-5.6883,0,0,0,0,0,0,0,0,0,0,0,0,0,-5.6496,-5.6501,-5.6762,-5.6763,-5.6764,-5.6861,-5.6863,-5.6864,-5.6786,-5.6782,-5.6778,-5.6774,-5.687,-5.6877,-5.6883,0,0,0,0,0,0,0,0,0,0,0,0,0,-5.6605,-5.6503,-5.6761,-5.6737,-5.6736,-5.6861,-5.6863,-5.6864,-5.6787,-5.6782,-5.6777,-5.6772,-5.6868,-5.6876,-5.6884,-5.7037,0,0,-5.691,-5.6914,0,0,0,0,0,0,0,0,-5.6599,-5.6615,-5.674,-5.6739,-5.6738,-5.6806,-5.6804,-5.6922,-5.6788,-5.6768,-5.6776,-5.677,-5.6854,-5.6863,-5.6892,-5.7041,-5.7045,-5.6911,-5.6916,-5.692,-5.6922,0,0,0,0,0,0,0,-5.6592,-5.661,-5.6801,-5.6741,-5.674,-5.6719,-5.6729,-5.6826,-5.6837,-5.6769,-5.6763,-5.6777,-5.6852,-5.6884,-5.6894,-5.7047,-5.6911,-5.6918,-5.6924,-5.6927,-5.7323,-5.7328,0,0,0,0,0,0,-5.6587,-5.6604,-5.6798,-5.6804,-5.6655,-5.6728,-5.6739,-5.6789,-5.6836,-5.6838,-5.6781,-5.6773,-5.6872,-5.6884,-5.6897,-5.7077,-5.692,-5.6928,-5.6933,-5.7318,-5.7324,-5.733,0,0,0,0,0,0,-5.6582,-5.6605,-5.6794,-5.6703,-5.6725,-5.6738,-5.6795,-5.6794,-5.6826,-5.6845,-5.6846,-5.6812,-5.6869,-5.6885,-5.7003,-5.7079,-5.6932,-5.6939,-5.7311,-5.732,-5.7327,-5.7439,0,0,0,0,0,0,-5.6575,-5.6604,-5.6664,-5.6705,-5.673,-5.69,-5.68,-5.6799,-5.6842,-5.6832,-5.6875,-5.6877,-5.6866,-5.699,-5.7011,-5.7088,-5.6946,-5.7304,-5.7315,-5.7325,-5.7429,-5.745,-5.7469,0,0,0,0,0,-5.6566,-5.6691,-5.6667,-5.6691,-5.6806,-5.6905,-5.6919,-5.6906,-5.6848,-5.6907,-5.6919,-5.6876,-5.7068,-5.7003,-5.7026,-5.7107,-5.7299,-5.7312,-5.7324,-5.742,-5.7446,-5.7468,0,0,0,0,0,0,-5.6657,-5.6696,-5.667,-5.6813,-5.6856,-5.6891,-5.6966,-5.6934,-5.6993,-5.6982,-5.6961,-5.6971,-5.7094,-5.7112,-5.7039,-5.7255,-5.7174,-5.7191,-5.7239,-5.7264,-5.7284,-5.7276,-5.6953,0,0,0,0,0,-5.6694,-5.6773,-5.6802,-5.6925,-5.6948,-5.6953,-5.6996,-5.6982,-5.7025,-5.7043,-5.7063,-5.7105,-5.7174,-5.722,-5.7285,-5.7431,-5.7438,-5.7498,-5.7518,-5.7534,-5.7549,-5.7625,-5.7651,-5.737,-5.737,-5.737,0,0,-5.677,-5.6801,-5.6852,-5.6944,-5.6976,-5.7056,-5.6969,-5.7058,-5.7116,-5.7055,-5.7167,-5.7184,-5.7229,-5.7361,-5.742,-5.7379,-5.7628,-5.755,-5.7562,-5.7568,-5.764,-5.7667,-5.769,-5.7378,-5.7377,-5.7376,0,0,-5.695,-5.6983,-5.7088,-5.7122,-5.7172,-5.7175,-5.72,-5.724,-5.7249,-5.7362,-5.7317,-5.7385,-5.7506,-5.7539,-5.7572,-5.7764,-5.7725,-5.7786,-5.7889,-5.7964,-5.7986,-5.8005,-5.8072,-5.8096,-5.78,-5.7801,-5.7801,0,-5.7039,-5.716,-5.7146,-5.7238,-5.7278,-5.7228,-5.7333,-5.7366,-5.7434,-5.7462,-5.7416,-5.7566,-5.7593,-5.7731,-5.7777,-5.7806,-5.7832,-5.778,-5.7984,-5.8004,-5.8021,-5.8084,-5.811,-5.7808,-5.7807,-5.7806,-5.7805,0,-5.7265,-5.7349,-5.7428,-5.7497,-5.7546,-5.7644,-5.7642,-5.7693,-5.7674,-5.7681,-5.7795,-5.7825,-5.7895,-5.7927,-5.7909,-5.8062,-5.8035,-5.7988,-5.7905,-5.8055,-5.8114,-5.8138,-5.7817,-5.7815,-5.7813,-5.7811,0,0,-5.7505,-5.7565,-5.7594,-5.7624,-5.7675,-5.7738,-5.7833,-5.7903,-5.7946,-5.7994,-5.8071,-5.8174,-5.813,-5.8167,-5.8152,-5.8218,-5.8365,-5.8162,-5.8163,-5.8197,-5.8533,-5.8567,-5.8596,-5.8341,-5.8345,-5.8349,-5.8528,0,-5.7687,-5.7854,-5.7843,-5.7999,-5.8075,-5.8028,-5.811,-5.8149,-5.8157,-5.8221,-5.8229,-5.8302,-5.8239,-5.8261,-5.8324,-5.8334,-5.8432,-5.8321,-5.8409,-5.8413,-5.8399,-5.8627,-5.8664,-5.8832,-5.8552,-5.8555,-5.8558,0,-5.7921,-5.7979,-5.8143,-5.8181,-5.8213,-5.8287,-5.8349,-5.8412,-5.8453,-5.8455,-5.8496,-5.847,-5.8563,-5.8479,-5.8604,-5.8529,-5.8564,-5.8575,-5.8581,-5.8587,-5.8494,-5.8638,-5.8886,-5.891,-5.8595,-5.8592,-5.8589,0,-5.8078,-5.8197,-5.831,-5.8337,-5.8385,-5.8437,-5.8459,-5.8497,-5.8539,-5.8592,-5.8619,-5.8682,-5.8716,-5.8764,-5.8755,-5.8695,-5.8882,-5.8798,-5.8884,-5.8884,-5.8924,-5.8922,-5.918,-5.895,-5.8949,-5.8949,-5.8948,0,-5.8281,-5.8382,-5.8381,-5.845,-5.8562,-5.8547,-5.8657,-5.8672,-5.8706,-5.8775,-5.8738,-5.8804,-5.8788,-5.8853,-5.8846,-5.8949,-5.8965,-5.8967,-5.8964,-5.897,-5.897,-5.8992,-5.8979,-5.8955,-5.8954,-5.8953,-5.8952,0,-5.8474,-5.8478,-5.8598,-5.8633,-5.8645,-5.8725,-5.8754,-5.8818,-5.8823,-5.8912,-5.8931,-5.8939,-5.9013,-5.9009,-5.9091,-5.9087,-5.9214,-5.9198,-5.9201,-5.9197,-5.9281,-5.9273,-5.9562,-5.9598,-5.9346,-5.9348,-5.935,0,-5.8603,-5.8681,-5.8725,-5.877,-5.8796,-5.8869,-5.8911,-5.8899,-5.8945,-5.8998,-5.9055,-5.9126,-5.9182,-5.9301,-5.9312,-5.9375,-5.9359,-5.9455,-5.9368,-5.9371,-5.9358,-5.9353,-5.936,-5.9472,-5.9475,-5.9477,-5.9479,0,-5.8831,-5.8828,-5.8893,-5.8959,-5.9011,-5.9061,-5.9107,-5.9145,-5.9138,-5.9191,-5.9267,-5.931,-5.9395,-5.9465,-5.9524,-5.9544,-5.951,-5.9507,-5.953,-5.9536,-5.9534,-5.9534,-5.9246,-5.95,-5.9498,-5.9497,-5.9495,-5.9495,-5.8995,-5.9061,-5.9102,-5.9175,-5.9208,-5.9252,-5.9313,-5.9327,-5.939,-5.946,-5.9448,-5.9533,-5.957,-5.9647,-5.9672,-5.9736,-5.9701,-5.9735,-5.9743,-5.9751,-5.976,-5.9525,-5.9747,-5.9747,-5.9746,-5.9745,-5.9745,0,-5.9219,-5.9243,-5.931,-5.9376,-5.9433,-5.9398,-5.9447,-5.9495,-5.9571,-5.961,-5.9666,-5.9752,-5.9819,-5.9836,-5.9899,-5.9947,-5.9933,-5.9964,-5.996,-5.9964,-5.9788,-5.9762,-5.9974,-5.9974,-5.9974,-5.9974,-5.9974,-5.9974,-5.9342,-5.9451,-5.9453,-5.9578,-5.96,-5.9684,-5.9715,-5.9754,-5.9785,-5.9883,-5.9939,-5.995,-5.9979,-6.0045,-6.0104,-6.0107,-6.0131,-6.0168,-6.0165,-6.0,-5.9977,-5.9955,-5.993,-6.0174,-6.0174,-6.0335,-6.0336,-6.0338]}]]